Terrell, TX

1:25 PM CDT on July 22, 2017 (GMT -0500)
Terrell Municipal

Weather History for KTRL - May, 2013

Change the Weather History Date:

Wednesday, May 22, 2013

  Actual Average (KGVT) Record (KGVT)
Temperature  
Mean Temperature 72 °F -  
Max Temperature 84 °F 81 °F 95 °F (2005)
Min Temperature 59 °F 66 °F 59 °F (2001)
Cooling Degree Days 6    
Growing Degree Days 22 (Base 50)    
Moisture  
Dew Point 61 °F    
Average Humidity 78    
Maximum Humidity 100    
Minimum Humidity 41    
Precipitation  
Precipitation 0.00 in - - ()
Sea Level Pressure  
Sea Level Pressure 29.89 in    
Wind  
Wind Speed 2 mph (East)    
Max Wind Speed 6 mph    
Max Gust Speed -    
Visibility 10 miles    
Events      
Averages and records for this station are not official NWS values.
T = Trace of Precipitation, MM = Missing Value Source: NWS Daily Summary

Daily Weather History Graph

Daily Weather History Graph

Search for Another Location

Airport or City:

Trip Planner

Search our weather history database for the weather conditions in past years. The results will help you decide how hot, cold, wet, or windy it might be!

Date:

Astronomy

May. 22, 2013 Rise Set
Actual Time 6:21 AM CDT 8:21 PM CDT
Civil Twilight 5:54 AM CDT 8:49 PM CDT
Nautical Twilight 5:20 AM CDT 9:23 PM CDT
Astronomical Twilight 4:45 AM CDT 9:59 PM CDT
Moon 5:52 PM CDT 4:17 AM CDT
Length of Visible Light 14h 55m
Length of Day
14h 00m
Waxing Gibbous, 91% of the Moon is Illuminated
May 22
Waxing Gibbous
May 24
Full
May 31
Last Quarter
Jun 8
New
Jun 16
First Quarter

Hourly Weather History & Observations

Time (CDT) Temp. Heat Index Dew Point Humidity Pressure Visibility Wind Dir Wind Speed Gust Speed Precip Events Conditions
12:53 AM 64.0 °F - 62.1 °F 93% 29.87 in 10.0 mi NW 5.8 mph - N/A   Overcast
1:53 AM 63.0 °F - 61.0 °F 93% 29.84 in 10.0 mi West 3.5 mph - N/A   Mostly Cloudy
2:09 AM 62.6 °F - 60.8 °F 94% 29.85 in 10.0 mi Calm Calm - N/A   Partly Cloudy
2:53 AM 60.1 °F - 59.0 °F 96% 29.84 in 10.0 mi Calm Calm - N/A   Partly Cloudy
3:53 AM 59.0 °F - 59.0 °F 100% 29.85 in 10.0 mi Calm Calm - N/A   Partly Cloudy
4:24 AM 59.0 °F - 57.2 °F 94% 29.87 in 8.0 mi Calm Calm - N/A   Scattered Clouds
4:33 AM 59.0 °F - 59.0 °F 100% 29.86 in 9.0 mi Calm Calm - N/A   Mostly Cloudy
4:53 AM 61.0 °F - 60.1 °F 97% 29.87 in 10.0 mi Calm Calm - N/A   Overcast
5:53 AM 62.1 °F - 60.1 °F 93% 29.88 in 10.0 mi Calm Calm - N/A   Overcast
6:38 AM 60.8 °F - 59.0 °F 94% 29.89 in 10.0 mi Calm Calm - N/A   Scattered Clouds
6:53 AM 60.1 °F - 59.0 °F 96% 29.88 in 10.0 mi Calm Calm - N/A   Partly Cloudy
7:07 AM 60.8 °F - 60.8 °F 100% 29.90 in 9.0 mi Calm Calm - N/A   Mostly Cloudy
7:53 AM 63.0 °F - 61.0 °F 93% 29.90 in 10.0 mi ESE 5.8 mph - N/A   Overcast
8:53 AM 64.9 °F - 62.1 °F 90% 29.93 in 10.0 mi SW 4.6 mph - N/A   Overcast
9:53 AM 66.0 °F - 61.0 °F 84% 29.94 in 10.0 mi Calm Calm - N/A   Mostly Cloudy
10:02 AM 68.0 °F - 60.8 °F 78% 29.95 in 10.0 mi Calm Calm - N/A   Scattered Clouds
10:53 AM 70.0 °F - 61.0 °F 73% 29.95 in 10.0 mi Calm Calm - N/A   Partly Cloudy
11:53 AM 73.9 °F - 62.1 °F 66% 29.94 in 10.0 mi Calm Calm - N/A   Clear
12:53 PM 77.0 °F - 63.0 °F 62% 29.93 in 10.0 mi Calm Calm - N/A   Clear
1:53 PM 81.0 °F 81.7 °F 61.0 °F 50% 29.92 in 10.0 mi ESE 3.5 mph - N/A   Clear
2:53 PM 82.0 °F 82.0 °F 57.9 °F 44% 29.91 in 10.0 mi Variable 3.5 mph - N/A   Clear
3:53 PM 82.0 °F 82.4 °F 60.1 °F 47% 29.89 in 10.0 mi Variable 3.5 mph - N/A   Clear
4:53 PM 84.0 °F 84.0 °F 60.1 °F 44% 29.87 in 10.0 mi Variable 3.5 mph - N/A   Clear
5:53 PM 84.0 °F 83.5 °F 57.9 °F 41% 29.86 in 10.0 mi SE 5.8 mph - N/A   Clear
6:53 PM 82.9 °F 82.8 °F 59.0 °F 44% 29.85 in 10.0 mi East 5.8 mph - N/A   Clear
7:53 PM 80.1 °F 81.2 °F 62.1 °F 54% 29.86 in 10.0 mi East 3.5 mph - N/A   Clear
8:53 PM 75.0 °F - 64.0 °F 69% 29.87 in 10.0 mi East 4.6 mph - N/A   Clear
9:53 PM 73.9 °F - 64.9 °F 73% 29.89 in 10.0 mi East 3.5 mph - N/A   Clear
10:53 PM 71.1 °F - 66.0 °F 84% 29.91 in 10.0 mi East 4.6 mph - N/A   Clear
11:53 PM 71.1 °F - 66.0 °F 84% 29.92 in 10.0 mi East 5.8 mph - N/A   Clear